FW7441 Weather Reports


Display with metric or nautical units.
time (UTC)temp
F
wind
direction
speed
MPH
gust
MPH
rain 1hr
in
rain 24hr
in
rain mn
in
humidity
%
barometer
mb
20260906222344 73 43 2.0 2.0 0.00 0.00 0.00 67 1019.1
20260906221842 73 115 2.0 3.0 0.00 0.00 0.00 68 1019.1
20260906221342 73 64 4.0 6.0 0.00 0.00 0.00 68 1019.1
20260906220837 73 71 3.0 5.0 0.00 0.00 0.00 68 1019.2
20260906220332 73 89 3.0 5.0 0.00 0.00 0.00 67 1019.1
20260906215832 74 67 5.0 8.0 0.00 0.00 0.00 66 1019.3
20260906215327 74 64 5.0 7.0 0.00 0.00 0.00 66 1019.3
20260906214825 74 61 5.0 6.0 0.00 0.00 0.00 66 1019.4
20260906214319 75 220 1.0 2.0 0.00 0.00 0.00 66 1019.5
20260906213818 75 73 2.0 3.0 0.00 0.00 0.00 67 1019.6
20260906213313 75 63 3.0 5.0 0.00 0.00 0.00 68 1019.6
20260906212810 75 86 2.0 3.0 0.00 0.00 0.00 67 1019.5
20260906212306 75 70 3.0 7.0 0.00 0.00 0.00 68 1019.6
20260906211805 75 151 2.0 2.0 0.00 0.00 0.00 68 1019.9
20260906211300 75 28 1.0 2.0 0.00 0.00 0.00 69 1019.8
20260906210756 75 91 4.0 5.0 0.00 0.00 0.00 69 1019.9
20260906210256 76 113 1.0 2.0 0.00 0.00 0.00 68 1019.6
20260906205756 75 45 5.0 8.0 0.00 0.00 0.00 70 1019.4
20260906205252 75 80 4.0 6.0 0.00 0.00 0.00 70 1019.8
20260906204748 76 50 2.0 2.0 0.00 0.00 0.00 70 1019.9
20260906204247 76 109 2.0 2.0 0.00 0.00 0.00 69 1019.9
20260906203746 75 310 2.0 3.0 0.00 0.00 0.00 70 1019.8
20260906203242 75 37 1.0 2.0 0.00 0.00 0.00 72 1019.9
20260906202738 75 80 4.0 7.0 0.00 0.00 0.00 70 1019.6
20260906202238 76 139 2.0 3.0 0.00 0.00 0.00 71 1019.9
20260906201733 76 96 3.0 3.0 0.00 0.00 0.00 71 1019.6
20260906201232 78 137 1.0 2.0 0.00 0.00 0.00 69 1019.7
20260906200728 78 283 2.0 2.0 0.00 0.00 0.00 70 1019.8
20260906200224 76 53 2.0 2.0 0.00 0.00 0.00 72 1019.8
20260906195719 77 50 3.0 5.0 0.00 0.00 0.00 70 1019.7
20260906195216 76 350 5.0 8.0 0.00 0.00 0.00 70 1019.7
20260906194711 76 40 3.0 3.0 0.00 0.00 0.00 70 1019.7
20260906194207 76 55 2.0 3.0 0.00 0.00 0.00 71 1019.8
20260906193702 76 55 2.0 2.0 0.00 0.00 0.00 71 1019.8
20260906193156 76 85 1.0 1.0 0.00 0.00 0.00 72 1019.9
20260906192652 75 45 3.0 3.0 0.00 0.00 0.00 71 1019.8
20260906192152 75 138 4.0 6.0 0.00 0.00 0.00 71 1019.8
20260906191646 76 61 3.0 6.0 0.00 0.00 0.00 70 1020.0
20260906191146 76 61 3.0 6.0 0.00 0.00 0.00 71 1020.1
20260906190646 76 93 2.0 2.0 0.00 0.00 0.00 72 1020.1
20260906190141 76 65 2.0 3.0 0.00 0.00 0.00 71 1020.1
20260906185640 76 119 4.0 5.0 0.00 0.00 0.00 73 1020.2
20260906185139 76 155 3.0 5.0 0.00 0.00 0.00 71 1020.0
20260906184634 77 112 8.0 10.0 0.00 0.00 0.00 71 1020.1
20260906184130 76 157 0.0 1.0 0.00 0.00 0.00 74 1020.4
20260906183625 76 40 5.0 7.0 0.00 0.00 0.00 74 1020.0
20260906183121 76 106 5.0 6.0 0.00 0.00 0.00 74 1019.8
20260906182615 75 98 2.0 3.0 0.00 0.00 0.00 72 1019.9
20260906182112 76 134 4.0 5.0 0.00 0.00 0.00 71 1020.1
20260906181612 75 83 3.0 5.0 0.00 0.00 0.00 74 1020.0
20260906181108 76 97 1.0 2.0 0.00 0.00 0.00 73 1020.1
20260906180604 76 62 2.0 3.0 0.00 0.00 0.00 73 1019.9
20260906175601 75 104 1.0 3.0 0.00 0.00 0.00 73 1020.1
20260906175056 75 13 2.0 2.0 0.00 0.00 0.00 72 1020.1
20260906174554 75 178 1.0 2.0 0.00 0.00 0.00 72 1020.4
20260906174043 76 72 1.0 1.0 0.00 0.00 0.00 73 1020.3
20260906173538 76 116 2.0 3.0 0.00 0.00 0.00 71 1020.1
20260906173035 75 118 3.0 6.0 0.00 0.00 0.00 72 1020.2
20260906172534 76 101 1.0 2.0 0.00 0.00 0.00 73 1020.2
20260906172030 76 72 1.0 2.0 0.00 0.00 0.00 75 1020.3
20260906171525 76 87 3.0 5.0 0.00 0.00 0.00 74 1020.3
20260906171020 76 60 5.0 6.0 0.00 0.00 0.00 73 1020.6
20260906170516 75 138 2.0 2.0 0.00 0.00 0.00 74 1020.4
20260906170015 76 92 3.0 5.0 0.00 0.00 0.00 74 1020.3
20260906165512 75 92 2.0 3.0 0.00 0.00 0.00 75 1020.7
20260906165007 75 92 2.0 2.0 0.00 0.00 0.00 76 1020.7
20260906164506 75 27 5.0 7.0 0.00 0.00 0.00 77 1020.6
20260906164003 75 73 4.0 6.0 0.00 0.00 0.00 76 1020.4
20260906163457 76 149 4.0 5.0 0.00 0.00 0.00 78 1020.5
20260906162956 76 138 4.0 7.0 0.00 0.00 0.00 79 1020.5
20260906162454 75 59 3.0 5.0 0.00 0.00 0.00 79 1020.5
20260906161950 76 54 2.0 2.0 0.00 0.00 0.00 79 1020.4
20260906161449 75 158 3.0 3.0 0.00 0.00 0.00 79 1020.2
20260906160943 76 166 2.0 3.0 0.00 0.00 0.00 78 1020.2
20260906160436 75 139 5.0 6.0 0.00 0.00 0.00 79 1020.3
20260906155935 74 225 5.0 8.0 0.00 0.00 0.00 79 1020.3
20260906155434 74 53 3.0 5.0 0.00 0.00 0.00 81 1020.3
20260906154930 75 88 3.0 5.0 0.00 0.00 0.00 81 1020.2
20260906154425 74 107 1.0 2.0 0.00 0.00 0.00 81 1020.4
20260906153923 75 85 3.0 3.0 0.00 0.00 0.00 80 1020.1
20260906153422 75 125 2.0 3.0 0.00 0.00 0.00 80 1020.1
20260906152918 75 57 5.0 6.0 0.00 0.00 0.00 81 1020.2
20260906152413 74 80 2.0 3.0 0.00 0.00 0.00 83 1020.0
20260906151912 74 139 4.0 5.0 0.00 0.00 0.00 83 1020.3
20260906151407 75 75 4.0 6.0 0.00 0.00 0.00 82 1020.2
20260906150903 74 58 3.0 6.0 0.00 0.00 0.00 82 1020.3
20260906150358 75 41 3.0 6.0 0.00 0.00 0.00 83 1020.2
20260906145858 75 227 3.0 5.0 0.00 0.00 0.00 83 1020.1
20260906145356 74 57 4.0 5.0 0.00 0.00 0.00 84 1020.1
20260906144851 74 117 1.0 1.0 0.00 0.00 0.00 86 1020.1
20260906144346 74 143 1.0 2.0 0.00 0.00 0.00 85 1019.9
20260906143846 74 46 3.0 3.0 0.00 0.00 0.00 86 1020.2
20260906143342 73 116 2.0 3.0 0.00 0.00 0.00 88 1020.0
20260906142838 73 86 0.0 1.0 0.00 0.00 0.00 87 1020.0
20260906142333 72 108 1.0 1.0 0.00 0.00 0.00 90 1020.1
20260906141833 72 125 3.0 5.0 0.00 0.00 0.00 89 1020.1
20260906141327 72 95 0.0 1.0 0.00 0.00 0.00 91 1020.1
20260906140826 73 122 1.0 1.0 0.00 0.00 0.00 89 1019.8
20260906140321 73 85 2.0 3.0 0.00 0.00 0.00 90 1020.3
20260906135819 72 82 1.0 2.0 0.00 0.00 0.00 92 1020.3
20260906135314 71 143 0.0 1.0 0.00 0.00 0.00 93 1020.3
20260906134809 71 133 3.0 5.0 0.00 0.00 0.00 92 1020.3
20260906134304 71 15 3.0 5.0 0.00 0.00 0.00 93 1020.2
20260906133800 71 156 1.0 2.0 0.00 0.00 0.00 93 1020.0
20260906133255 71 110 2.0 2.0 0.00 0.00 0.00 92 1019.8
20260906132750 71 116 4.0 5.0 0.00 0.00 0.00 92 1019.6
20260906132246 71 148 3.0 3.0 0.00 0.00 0.00 93 1019.6
20260906131741 70 101 3.0 5.0 0.00 0.00 0.00 94 1019.8
20260906131236 70 81 0.0 1.0 0.00 0.00 0.00 96 1019.7
20260906130732 69 64 2.0 2.0 0.00 0.00 0.00 97 1019.9
20260906130227 69 101 1.0 1.0 0.00 0.00 0.00 99 1019.7
20260906125725 68 60 2.0 2.0 0.00 0.00 0.00 99 1019.9
20260906125223 68 66 0.0 0.0 0.00 0.00 0.00 99 1019.8
20260906124724 67 72 1.0 1.0 0.00 0.00 0.00 99 1019.9
20260906124220 67 56 2.0 2.0 0.00 0.00 0.00 99 1019.6
20260906123718 67 72 1.0 2.0 0.00 0.00 0.00 99 1019.6
20260906123214 66 104 0.0 0.0 0.00 0.00 0.00 99 1019.3
20260906122713 66 147 1.0 2.0 0.00 0.00 0.00 99 1019.4
20260906122208 66 49 1.0 1.0 0.00 0.00 0.00 99 1019.3
20260906121705 66 52 1.0 1.0 0.00 0.00 0.00 99 1019.2
20260906121201 66 65 1.0 1.0 0.00 0.00 0.00 99 1019.2
20260906120656 66 30 0.0 1.0 0.00 0.00 0.00 99 1019.2
20260906120153 66 84 1.0 1.0 0.00 0.00 0.00 99 1019.3
20260906115648 66 60 1.0 2.0 0.00 0.00 0.00 99 1019.0
20260906115143 66 53 0.0 0.0 0.00 0.00 0.00 99 1018.8
20260906114642 65 47 0.0 0.0 0.00 0.00 0.00 99 1018.9
20260906114138 65 60 0.0 0.0 0.00 0.00 0.00 99 1019.0
20260906113638 65 48 0.0 0.0 0.00 0.00 0.00 99 1018.7
20260906113138 65 339 0.0 0.0 0.00 0.00 0.00 99 1018.6
20260906112637 65 339 0.0 0.0 0.00 0.00 0.00 99 1018.3
20260906112134 65 339 0.0 0.0 0.00 0.00 0.00 99 1018.5
20260906111633 65 338 0.0 0.0 0.00 0.00 0.00 99 1018.6
20260906111128 65 338 0.0 0.0 0.00 0.00 0.00 99 1018.7
20260906110623 65 309 0.0 0.0 0.00 0.00 0.00 99 1018.6
20260906110118 65 310 0.0 0.0 0.00 0.00 0.00 99 1018.4
20260906105612 65 309 0.0 0.0 0.00 0.00 0.00 99 1018.5
20260906105109 65 347 0.0 0.0 0.00 0.00 0.00 99 1018.4
20260906104607 65 314 0.0 0.0 0.00 0.00 0.00 99 1018.3
20260906104102 65 325 0.0 0.0 0.00 0.00 0.00 99 1018.3
20260906103600 65 23 0.0 0.0 0.00 0.00 0.00 99 1018.6
20260906103056 65 290 0.0 0.0 0.00 0.00 0.00 99 1018.3
20260906102555 66 70 0.0 1.0 0.00 0.00 0.00 99 1018.6
20260906102050 66 13 0.0 0.0 0.00 0.00 0.00 99 1018.5
20260906101545 65 0 0.0 1.0 0.00 0.00 0.00 99 1018.3
20260906101039 66 47 0.0 0.0 0.00 0.00 0.00 99 1018.1
20260906100535 66 77 0.0 0.0 0.00 0.00 0.00 99 1018.2
20260906100036 66 356 0.0 0.0 0.00 0.00 0.00 99 1018.1
20260906095530 66 51 0.0 0.0 0.00 0.00 0.00 99 1017.8
20260906095026 66 344 1.0 2.0 0.00 0.00 0.00 99 1018.1
20260906094524 66 7 0.0 0.0 0.00 0.00 0.00 99 1018.2
20260906094021 66 346 0.0 1.0 0.00 0.00 0.00 99 1018.1
20260906093516 66 64 0.0 0.0 0.00 0.00 0.00 99 1018.2
20260906093016 66 61 0.0 0.0 0.00 0.00 0.00 99 1018.0
20260906092511 66 22 1.0 1.0 0.00 0.00 0.00 99 1018.1
20260906092006 66 11 0.0 0.0 0.00 0.00 0.00 99 1018.0
20260906091502 65 15 0.0 0.0 0.00 0.00 0.00 99 1017.9
20260906090959 65 348 0.0 1.0 0.00 0.00 0.00 99 1017.9
20260906090453 65 78 1.0 1.0 0.00 0.00 0.00 99 1017.8
20260906085953 65 315 0.0 0.0 0.00 0.00 0.00 99 1018.0
20260906085452 65 314 0.0 1.0 0.00 0.00 0.00 99 1017.9
20260906084951 65 319 0.0 0.0 0.00 0.00 0.00 99 1018.0
20260906084446 65 353 2.0 2.0 0.00 0.00 0.00 99 1017.8
20260906083945 65 289 1.0 1.0 0.00 0.00 0.00 99 1017.8
20260906083441 65 343 0.0 0.0 0.00 0.00 0.00 99 1017.8
20260906082940 65 316 0.0 1.0 0.00 0.00 0.00 99 1017.9
20260906082436 65 345 0.0 0.0 0.00 0.00 0.00 99 1017.9
20260906081931 65 311 1.0 1.0 0.00 0.00 0.00 99 1017.9
20260906081426 65 321 0.0 0.0 0.00 0.00 0.00 99 1018.0
20260906080923 65 309 0.0 1.0 0.00 0.00 0.00 99 1017.9
20260906080419 66 1 0.0 0.0 0.00 0.00 0.00 99 1017.9
20260906075919 66 328 0.0 0.0 0.00 0.00 0.00 99 1017.9
20260906075414 66 4 0.0 0.0 0.00 0.00 0.00 99 1017.7
20260906074909 66 299 0.0 0.0 0.00 0.00 0.00 99 1017.9
20260906074409 66 306 0.0 0.0 0.00 0.00 0.00 99 1018.0
20260906073908 66 312 0.0 0.0 0.00 0.00 0.00 99 1018.1
20260906073403 66 345 0.0 0.0 0.00 0.00 0.00 99 1018.2
20260906072859 66 353 0.0 0.0 0.00 0.00 0.00 99 1018.2
20260906072354 66 354 0.0 0.0 0.00 0.00 0.00 99 1018.0
20260906071850 66 355 0.0 0.0 0.00 0.00 0.00 99 1018.0
20260906071345 66 355 0.0 0.0 0.00 0.00 0.00 99 1018.0
20260906070841 66 355 0.0 0.0 0.00 0.00 0.00 99 1018.1
20260906070337 66 301 0.0 0.0 0.00 0.00 0.00 99 1018.0
20260906065832 66 301 0.0 0.0 0.00 0.00 0.00 99 1018.0
20260906065327 66 301 0.0 0.0 0.00 0.00 0.00 99 1018.1
20260906064822 66 301 0.0 0.0 0.00 0.00 0.00 99 1018.3
20260906064318 66 301 0.0 0.0 0.00 0.00 0.00 99 1017.9
20260906063813 66 301 0.0 0.0 0.00 0.00 0.00 99 1018.2
20260906063308 66 301 0.0 0.0 0.00 0.00 0.00 99 1018.1
20260906062803 66 301 0.0 0.0 0.00 0.00 0.00 99 1018.0
20260906062305 67 301 0.0 0.0 0.00 0.00 0.00 99 1018.1
20260906061758 67 301 0.0 0.0 0.00 0.00 0.00 99 1018.2
20260906061255 67 301 0.0 0.0 0.00 0.00 0.00 99 1018.0
20260906060749 67 301 0.0 0.0 0.00 0.00 0.00 99 1017.9
20260906060247 67 301 0.0 0.0 0.00 0.00 0.00 99 1018.3
20260906055742 68 301 0.0 0.0 0.00 0.00 0.00 99 1018.1
20260906055237 68 301 0.0 0.0 0.00 0.00 0.00 99 1018.2
20260906054733 68 302 0.0 0.0 0.00 0.00 0.00 99 1018.3
20260906054228 68 302 0.0 0.0 0.00 0.00 0.00 99 1018.2
20260906053725 68 300 0.0 0.0 0.00 0.00 0.00 99 1018.1
20260906053220 68 303 0.0 0.0 0.00 0.00 0.00 99 1018.1
20260906052715 68 300 0.0 0.0 0.00 0.00 0.00 99 1018.0
20260906052211 68 14 0.0 0.0 0.00 0.00 0.00 99 1017.8
20260906051708 69 311 0.0 0.0 0.00 0.00 0.00 99 1017.7
20260906051207 69 61 1.0 1.0 0.00 0.00 0.00 99 1017.7
20260906050703 69 8 1.0 2.0 0.00 0.00 0.00 99 1017.7
20260906050158 69 70 0.0 0.0 0.00 0.00 0.00 99 1017.8
20260906045656 69 35 2.0 3.0 0.00 0.00 0.00 99 1017.7
20260906045151 69 33 1.0 2.0 0.00 0.00 0.00 99 1017.7
20260906044647 69 63 1.0 2.0 0.00 0.00 0.00 99 1017.4
20260906044142 69 53 0.0 1.0 0.00 0.00 0.00 99 1017.4
20260906043639 69 66 2.0 3.0 0.00 0.00 0.00 99 1017.5
20260906043134 69 78 1.0 1.0 0.00 0.00 0.00 99 1017.3
20260906042633 69 42 1.0 1.0 0.00 0.00 0.00 99 1017.3
20260906042127 69 5 0.0 1.0 0.00 0.00 0.00 99 1017.3
20260906041623 69 80 0.0 1.0 0.00 0.00 0.00 99 1017.2
20260906041118 69 59 1.0 1.0 0.00 0.00 0.00 99 1017.1
20260906040614 69 326 1.0 2.0 0.00 0.00 0.00 99 1017.0
20260906040109 69 57 1.0 1.0 0.00 0.00 0.00 99 1017.2
20260906035604 69 83 0.0 1.0 0.00 0.00 0.00 99 1017.2
20260906035100 69 76 0.0 0.0 0.00 0.00 0.00 99 1017.1
20260906034559 69 76 0.0 0.0 0.00 0.00 0.00 99 1017.1
20260906034054 69 43 0.0 0.0 0.00 0.00 0.00 99 1017.1
20260906033550 69 64 2.0 3.0 0.00 0.00 0.00 99 1017.2
20260906033045 69 72 3.0 6.0 0.00 0.00 0.00 99 1017.2
20260906032542 69 336 3.0 3.0 0.00 0.00 0.00 99 1017.0
20260906032036 69 113 2.0 5.0 0.00 0.00 0.00 98 1016.8
20260906031532 69 56 2.0 2.0 0.00 0.00 0.00 98 1017.0
20260906031027 69 63 3.0 5.0 0.00 0.00 0.00 98 1017.1
20260906030526 69 92 1.0 2.0 0.00 0.00 0.00 98 1017.1
20260906030026 69 46 3.0 3.0 0.00 0.00 0.00 98 1017.0
20260906025526 69 67 1.0 2.0 0.00 0.00 0.00 98 1017.0
20260906025024 69 52 0.0 0.0 0.00 0.00 0.00 98 1016.9
20260906024520 69 28 1.0 2.0 0.00 0.00 0.00 98 1017.0
20260906024020 69 13 2.0 2.0 0.00 0.00 0.00 97 1017.1
20260906023516 70 38 3.0 5.0 0.00 0.00 0.00 97 1017.0
20260906023011 70 68 2.0 5.0 0.00 0.00 0.00 97 1016.9
20260906022506 70 91 1.0 1.0 0.00 0.00 0.00 97 1016.6
20260906022001 70 62 2.0 3.0 0.00 0.00 0.00 97 1016.9
20260906021456 70 87 3.0 5.0 0.00 0.00 0.00 96 1016.8
20260906020950 71 77 0.0 0.0 0.00 0.00 0.00 96 1017.0
20260906020445 71 90 0.0 1.0 0.00 0.00 0.00 96 1016.8
20260906015944 71 81 2.0 2.0 0.00 0.00 0.00 95 1016.9
20260906015444 71 89 0.0 0.0 0.00 0.00 0.00 96 1016.8
20260906014944 71 67 2.0 3.0 0.00 0.00 0.00 96 1017.0
20260906014438 71 31 1.0 1.0 0.00 0.00 0.00 96 1017.0
20260906013934 71 67 0.0 1.0 0.00 0.00 0.00 96 1017.0
20260906013429 71 2 1.0 2.0 0.00 0.00 0.00 96 1017.0
20260906012925 70 55 1.0 2.0 0.00 0.00 0.00 97 1016.9
20260906012425 71 67 1.0 2.0 0.00 0.00 0.00 97 1016.9
20260906011924 70 55 1.0 3.0 0.00 0.00 0.00 97 1017.2
20260906011420 71 65 0.0 1.0 0.00 0.00 0.00 97 1017.1
20260906010915 71 9 1.0 1.0 0.00 0.00 0.00 97 1016.9
20260906010411 71 51 2.0 2.0 0.00 0.00 0.00 97 1016.9
20260906005906 71 312 3.0 5.0 0.00 0.00 0.00 97 1016.8
20260906005405 71 351 2.0 2.0 0.00 0.00 0.00 97 1016.6
20260906004858 71 29 1.0 2.0 0.00 0.00 0.00 96 1016.6
20260906004353 71 161 2.0 2.0 0.00 0.00 0.00 96 1016.6
20260906003848 71 346 2.0 2.0 0.00 0.00 0.00 96 1016.2
20260906003344 71 355 4.0 7.0 0.00 0.00 0.00 96 1016.4
20260906002839 71 54 0.0 0.0 0.00 0.00 0.00 96 1016.3
20260906002338 71 67 2.0 3.0 0.00 0.00 0.00 96 1016.2
20260906001834 71 339 2.0 3.0 0.00 0.00 0.00 96 1016.6
20260906001330 71 24 3.0 3.0 0.00 0.00 0.00 95 1016.5
20260906000825 71 343 2.0 2.0 0.00 0.00 0.00 95 1016.5
20260906000319 71 343 4.0 5.0 0.00 0.00 0.00 95 1016.4
20260905235819 71 5 2.0 3.0 0.00 0.00 0.00 95 1016.3
20260905235314 71 59 2.0 3.0 0.00 0.00 0.00 95 1016.3
20260905234809 71 53 5.0 9.0 0.00 0.00 0.00 96 1016.1
20260905234304 71 25 1.0 2.0 0.00 0.00 0.00 96 1016.2
20260905233759 71 9 0.0 1.0 0.00 0.00 0.00 96 1016.5
20260905233254 71 128 2.0 2.0 0.00 0.00 0.00 96 1016.5
20260905232753 71 11 3.0 5.0 0.00 0.00 0.00 96 1016.6
20260905232249 71 57 8.0 9.0 0.00 0.00 0.00 95 1016.4
20260905231745 71 345 5.0 9.0 0.00 0.00 0.00 95 1016.2
20260905231240 71 33 2.0 3.0 0.00 0.00 0.00 95 1016.3
20260905230736 72 40 3.0 6.0 0.00 0.00 0.00 95 1016.2
20260905230234 72 68 1.0 2.0 0.00 0.00 0.00 94 1016.2
20260905225734 73 73 1.0 2.0 0.00 0.00 0.00 94 1016.3
20260905225229 73 101 3.0 5.0 0.00 0.00 0.00 93 1016.3
20260905224728 74 192 1.0 2.0 0.00 0.00 0.00 92 1015.9
20260905224223 74 36 3.0 5.0 0.00 0.00 0.00 92 1015.9
20260905223720 75 91 2.0 3.0 0.00 0.00 0.00 91 1015.8
20260905223216 75 78 2.0 2.0 0.00 0.00 0.00 91 1015.7
20260905222712 75 40 4.0 6.0 0.00 0.00 0.00 90 1016.1